| time (UTC) | temp F | wind direction | speed knots | gust knots | rain 1hr in | rain 24hr in | rain mn in | humidity % | barometer mb |
| 20260504041500 | 45 | 192 | 1.7 | 0.0 | 0.00 | 0.00 | 0.00 | 78 | 1006.5 |
| 20260504040058 | 45 | 269 | 2.6 | 0.0 | 0.00 | 0.00 | 0.00 | 77 | 1006.4 |
| 20260504034558 | 45 | 217 | 1.7 | 0.0 | 0.00 | 0.00 | 0.00 | 76 | 1006.4 |
| 20260504033056 | 45 | 207 | 1.7 | 0.0 | 0.00 | 0.00 | 0.00 | 75 | 1006.6 |
| 20260504031556 | 45 | 179 | 2.6 | 0.0 | 0.00 | 0.00 | 0.00 | 72 | 1006.5 |
| 20260504030055 | 45 | 209 | 1.7 | 0.0 | 0.00 | 0.00 | 0.00 | 71 | 1006.5 |
| 20260504024609 | 45 | 203 | 2.6 | 0.0 | 0.00 | 0.00 | 0.00 | 69 | 1006.7 |
| 20260504023055 | 46 | 230 | 2.6 | 0.0 | 0.00 | 0.00 | 0.00 | 68 | 1006.7 |
| 20260504021554 | 46 | 223 | 3.5 | 0.0 | 0.00 | 0.00 | 0.00 | 69 | 1006.9 |
| 20260504020055 | 46 | 219 | 3.5 | 0.0 | 0.00 | 0.00 | 0.00 | 69 | 1006.9 |
| 20260504014601 | 47 | 186 | 3.5 | 0.0 | 0.00 | 0.00 | 0.00 | 70 | 1007.0 |
| 20260504013056 | 48 | 202 | 2.6 | 0.0 | 0.00 | 0.00 | 0.00 | 69 | 1007.0 |
| 20260504011552 | 48 | 182 | 1.7 | 0.0 | 0.00 | 0.00 | 0.00 | 68 | 1006.8 |
| 20260504010100 | 49 | 236 | 3.5 | 0.0 | 0.00 | 0.00 | 0.00 | 67 | 1006.8 |
| 20260504004551 | 49 | 214 | 2.6 | 0.0 | 0.00 | 0.00 | 0.00 | 66 | 1006.6 |
| 20260504003054 | 50 | 229 | 2.6 | 0.0 | 0.00 | 0.00 | 0.00 | 64 | 1006.6 |
| 20260504001550 | 50 | 245 | 3.5 | 0.0 | 0.00 | 0.00 | 0.00 | 61 | 1006.5 |
| 20260504000116 | 51 | 286 | 6.1 | 0.0 | 0.00 | 0.00 | 0.00 | 56 | 1006.5 |
| 20260503234556 | 52 | 227 | 5.2 | 0.0 | 0.00 | 0.00 | 0.00 | 50 | 1006.4 |
| 20260503233049 | 52 | 237 | 5.2 | 0.0 | 0.00 | 0.00 | 0.00 | 47 | 1006.4 |
| 20260503231548 | 53 | 183 | 5.2 | 0.0 | 0.00 | 0.00 | 0.00 | 45 | 1006.4 |
| 20260503230049 | 53 | 319 | 4.3 | 0.0 | 0.00 | 0.00 | 0.00 | 45 | 1006.6 |
| 20260503224547 | 53 | 280 | 4.3 | 0.0 | 0.00 | 0.00 | 0.00 | 44 | 1006.5 |
| 20260503223048 | 54 | 290 | 4.3 | 0.0 | 0.00 | 0.00 | 0.00 | 43 | 1006.5 |
| 20260503221553 | 55 | 207 | 4.3 | 0.0 | 0.00 | 0.00 | 0.00 | 43 | 1006.5 |
| 20260503220045 | 55 | 199 | 4.3 | 0.0 | 0.00 | 0.00 | 0.00 | 43 | 1006.4 |
| 20260503214545 | 56 | 259 | 4.3 | 0.0 | 0.00 | 0.00 | 0.00 | 43 | 1006.5 |
| 20260503213045 | 55 | 295 | 4.3 | 0.0 | 0.00 | 0.00 | 0.00 | 44 | 1006.4 |
| 20260503211541 | 56 | 272 | 4.3 | 0.0 | 0.00 | 0.00 | 0.00 | 43 | 1006.5 |
| 20260503210041 | 56 | 284 | 5.2 | 0.0 | 0.00 | 0.00 | 0.00 | 43 | 1006.6 |
| 20260503204538 | 57 | 203 | 5.2 | 0.0 | 0.00 | 0.00 | 0.00 | 41 | 1006.8 |
| 20260503203055 | 56 | 323 | 4.3 | 0.0 | 0.00 | 0.00 | 0.00 | 42 | 1006.8 |
| 20260503201537 | 58 | 291 | 4.3 | 0.0 | 0.00 | 0.00 | 0.00 | 41 | 1007.0 |
| 20260503200036 | 57 | 272 | 4.3 | 0.0 | 0.00 | 0.00 | 0.00 | 41 | 1007.1 |
| 20260503194537 | 57 | 214 | 4.3 | 0.0 | 0.00 | 0.00 | 0.00 | 39 | 1007.2 |
| 20260503193032 | 56 | 242 | 4.3 | 0.0 | 0.00 | 0.00 | 0.00 | 39 | 1007.7 |
| 20260503191530 | 56 | 194 | 4.3 | 0.0 | 0.00 | 0.00 | 0.00 | 38 | 1007.8 |
| 20260503190035 | 57 | 277 | 3.5 | 0.0 | 0.00 | 0.00 | 0.00 | 40 | 1008.0 |
| 20260503184526 | 57 | 247 | 5.2 | 0.0 | 0.00 | 0.00 | 0.00 | 33 | 1008.1 |
| 20260503183028 | 57 | 263 | 3.5 | 0.0 | 0.00 | 0.00 | 0.00 | 34 | 1008.3 |
| 20260503181525 | 56 | 259 | 4.3 | 0.0 | 0.00 | 0.00 | 0.00 | 35 | 1008.5 |
| 20260503180026 | 55 | 250 | 4.3 | 0.0 | 0.00 | 0.00 | 0.00 | 35 | 1008.7 |
| 20260503174518 | 56 | 239 | 4.3 | 0.0 | 0.00 | 0.00 | 0.00 | 35 | 1008.8 |
| 20260503173035 | 56 | 254 | 4.3 | 0.0 | 0.00 | 0.00 | 0.00 | 35 | 1009.0 |
| 20260503171513 | 56 | 284 | 3.5 | 0.0 | 0.00 | 0.00 | 0.00 | 38 | 1009.2 |
| 20260503081533 | 38 | 277 | 0.9 | 0.0 | 0.00 | 0.00 | 0.00 | 72 | 1011.8 |
| 20260503071525 | 39 | 282 | 0.9 | 0.0 | 0.00 | 0.00 | 0.00 | 69 | 1011.8 |
| 20260503054515 | 40 | 298 | 0.9 | 0.0 | 0.00 | 0.00 | 0.00 | 66 | 1012.1 |
| 20260503053011 | 40 | 263 | 0.9 | 0.0 | 0.00 | 0.00 | 0.00 | 64 | 1012.1 |
| 20260503051506 | 41 | 277 | 0.0 | 0.0 | 0.00 | 0.00 | 0.00 | 64 | 1012.3 |
| 20260503050005 | 41 | 279 | 0.9 | 0.0 | 0.00 | 0.00 | 0.00 | 64 | 1012.3 |
| 20260503044504 | 41 | 280 | 1.7 | 0.0 | 0.00 | 0.00 | 0.00 | 63 | 1012.4 |
| 20260503043002 | 42 | 298 | 1.7 | 0.0 | 0.00 | 0.00 | 0.00 | 62 | 1012.5 |